This is the latest recevied weather packets stored in our database for station/object PI8ANH-13. If no packets are shown the sender has not sent any weather packets the latest 10 day(s).
| Time | Temp. | Humidity | Pressure | Rain* | Wind** | Luminosity | Snow |
|---|---|---|---|---|---|---|---|
| 1777626898 | 17.78° C | 30% | 1026 hPa | - | - | - | - |
| 1777625998 | 17.22° C | 29% | 1026 hPa | - | - | - | - |
| 1777625098 | 17.22° C | 29% | 1026 hPa | - | - | - | - |
| 1777624198 | 16.11° C | 34% | 1026 hPa | - | - | - | - |
| 1777623298 | 16.11° C | 34% | 1026 hPa | - | - | - | - |
| 1777622398 | 15° C | 39% | 1026 hPa | - | - | - | - |
| 1777621498 | 15° C | 39% | 1026 hPa | - | - | - | - |
| 1777620598 | 13.89° C | 41% | 1026 hPa | - | - | - | - |
| 1777619698 | 13.89° C | 41% | 1026 hPa | - | - | - | - |
| 1777618798 | 12.78° C | 44% | 1026 hPa | - | - | - | - |
| 1777617898 | 12.78° C | 44% | 1026 hPa | - | - | - | - |
| 1777616998 | 12.22° C | 47% | 1026 hPa | - | - | - | - |
| 1777616098 | 12.22° C | 47% | 1026 hPa | - | - | - | - |
| 1777615198 | 11.11° C | 50% | 1026 hPa | - | - | - | - |
| 1777614298 | 11.11° C | 50% | 1026 hPa | - | - | - | - |
| 1777613398 | 8.89° C | 57% | 1026 hPa | - | - | - | - |
| 1777612498 | 8.89° C | 57% | 1026 hPa | - | - | - | - |
| 1777611598 | 8.89° C | 57% | 1026 hPa | - | - | - | - |
| 1777610698 | 8.89° C | 57% | 1026 hPa | - | - | - | - |
| 1777609798 | 8.89° C | 57% | 1026 hPa | - | - | - | - |
| 1777608898 | 8.89° C | 57% | 1026 hPa | - | - | - | - |
| 1777607998 | 7.78° C | 61% | 1026 hPa | - | - | - | - |
| 1777607098 | 7.78° C | 61% | 1026 hPa | - | - | - | - |
| 1777606198 | 8.89° C | 57% | 1026 hPa | - | - | - | - |
| 1777605298 | 8.89° C | 57% | 1026 hPa | - | - | - | - |
* Rain since midnight (hover to see other rain measurements)
** Current wind speed in m/s (hover to see current wind gust speed)